Temp
12 12 12 12 12 12 12 12 13 13 13 13 13 13 13 13 13 13 13 13 14 14 14 13 13 13 13 13 13 13 13 13 13 13 13 13 13 13 13 12 12 12 12 12 12 12 12 12 12 12 12 12 12 12 12 12 12 12 12 12 12 12 12 12 12 12 12 11 11
12 12 12 12 12 12 12 12 13 13 13 13 13 12 12 12 12 12 12 13 13 13 13 13 13 13 13 13 13 13 13 13 13 12 12 12 12 12 12 12 12 12 12 12 12 12 12 12 12 12 12 12 12 12 12 12 12 12 12 12 12 12 12 12 12 12 11 11 11
12 12 12 11 12 12 12 12 13 13 13 12 12 12 12 12 11 11 12 12 13 13 13 13 13 13 13 13 13 13 13 12 12 12 12 12 12 12 12 12 12 12 12 12 12 12 12 13 13 13 13 13 13 13 12 12 12 12 12 12 12 12 12 12 12 12 11 11 11
12 12 11 11 11 11 12 12 12 12 12 12 11 11 11 11 11 11 11 12 12 12 13 13 13 13 13 13 12 12 12 12 12 12 12 13 13 13 13 13 13 13 13 13 12 12 12 13 13 13 13 13 13 13 13 13 13 12 12 12 12 12 12 12 12 12 11 12 12
12 12 12 11 11 11 11 12 12 11 11 11 11 11 11 11 11 11 11 11 11 11 12 12 12 12 12 12 12 12 12 12 12 12 13 13 13 13 13 13 13 13 13 13 12 12 12 13 13 13 13 13 13 13 13 13 13 13 12 12 12 12 12 12 12 12 12 12 12
12 12 12 12 11 11 11 11 11 11 11 11 11 11 11 11 11 11 11 11 11 11 11 12 12 12 12 12 12 12 12 12 12 12 13 13 13 13 13 13 13 12 12 13 13 12 13 13 13 13 13 13 13 13 13 13 13 12 12 12 12 12 12 12 12 12 12 12 13
11 11 11 12 11 11 11 11 11 11 11 11 11 11 11 11 11 11 11 11 11 11 11 11 12 12 12 12 12 12 12 12 12 13 13 13 13 13 13 13 12 12 12 12 12 12 12 12 12 12 12 12 12 12 12 12 12 12 12 12 12 12 12 12 12 12 13 13 13
11 11 11 11 11 11 11 11 11 11 11 11 11 11 11 11 11 11 11 11 11 11 11 11 12 12 12 12 12 12 12 12 12 12 12 12 12 12 13 12 12 12 12 12 12 12 12 12 12 12 12 12 12 12 12 12 12 12 12 12 12 12 12 12 13 13 13 13 13
11 11 11 11 11 11 11 11 11 11 11 11 11 10 10 10 11 11 11 11 11 11 11 11 11 12 12 12 12 12 12 12 12 12 12 12 12 12 12 12 12 12 12 12 12 12 12 12 12 12 12 12 12 12 12 12 12 12 12 12 13 13 13 13 13 13 13 13 13
11 11 11 11 11 11 11 11 11 11 11 11 10 10 10 10 11 11 11 11 11 11 11 11 11 11 12 12 12 12 12 12 12 12 12 12 12 12 12 12 12 12 12 12 12 12 12 12 12 12 12 12 13 13 13 13 13 13 13 13 13 13 13 13 13 13 13 13 13
11 11 11 11 11 11 11 11 10 10 10 10 10 10 10 10 11 11 11 11 11 11 11 11 11 11 12 12 12 12 12 12 12 12 12 12 12 12 12 12 12 12 12 12 12 12 12 12 12 12 13 13 13 13 13 13 13 13 13 13 13 13 13 13 13 13 13 13 13
11 11 11 11 11 11 11 11 10 10 10 10 10 10 10 10 10 11 11 11 11 11 11 11 11 11 11 12 12 12 12 12 12 12 12 12 12 12 12 12 12 12 12 12 12 12 12 12 12 13 13 13 13 13 13 13 13 13 13 13 13 13 13 13 12 12 12 12 12
10 11 11 11 11 11 11 11 10 10 10 10 10 10 10 10 10 10 11 11 11 10 10 11 11 11 11 11 12 12 12 12 12 12 12 12 12 12 12 12 12 12 12 12 12 12 12 13 13 13 13 13 13 13 13 13 13 13 13 12 12 12 12 12 12 12 12 12 12
10 11 11 11 11 11 11 11 10 10 10 10 10 10 10 10 10 10 10 10 10 10 10 10 11 11 11 11 11 11 11 11 11 12 12 12 12 12 12 12 12 12 12 12 12 12 13 13 13 13 13 13 13 13 13 13 12 12 12 12 12 12 12 12 12 12 12 12 12
10 11 11 11 11 11 11 11 11 10 10 10 10 10 10 10 10 10 10 10 10 10 10 10 11 11 11 11 11 11 12 12 12 11 11 11 11 11 12 12 12 12 12 12 12 13 13 13 13 13 13 13 13 13 13 12 12 12 12 12 12 12 12 12 12 12 12 12 12
11 11 11 11 11 11 11 11 10 10 10 10 10 10 10 10 10 10 10 10 9 10 10 10 11 11 11 12 12 12 12 12 12 11 10 10 10 10 11 11 12 12 12 12 12 12 13 13 13 13 12 12 12 12 12 12 12 12 12 12 12 12 12 12 12 12 12 12 12
11 11 11 11 11 11 11 10 10 10 10 10 10 10 10 9 9 9 9 9 9 9 10 11 11 11 12 12 12 12 11 11 11 11 10 9 9 10 11 11 12 12 12 12 12 12 12 12 12 12 12 12 12 12 12 12 12 12 12 12 12 12 12 12 12 12 11 11 11
11 11 11 11 10 10 10 10 10 10 10 10 9 9 9 9 9 9 9 9 9 9 10 10 11 11 11 11 11 11 11 11 11 11 10 10 10 10 11 11 12 12 12 12 12 12 12 12 12 12 12 12 12 12 12 12 12 12 12 12 12 12 12 11 11 11 11 10 10
10 10 10 10 10 10 10 10 10 10 9 9 9 9 9 9 9 9 9 9 9 9 9 10 10 11 11 11 11 11 11 11 11 11 11 11 11 11 11 11 11 11 11 11 11 12 12 12 12 12 12 12 12 12 12 12 12 12 12 11 11 11 11 11 10 10 10 9 9
10 10 10 10 10 10 10 10 9 9 9 10 10 9 9 9 9 9 9 9 9 9 9 9 10 10 10 11 11 11 11 11 11 11 11 11 11 11 11 11 11 11 11 11 11 11 11 12 12 12 12 12 11 11 11 11 11 11 11 11 10 10 10 10 9 9 9 8 8
10 10 10 10 10 10 10 10 10 10 10 10 10 10 9 9 9 9 9 9 9 9 9 9 9 10 10 10 10 10 10 11 11 11 11 11 11 11 11 11 11 11 11 11 11 11 11 11 11 11 11 11 11 10 10 10 10 10 10 9 9 9 9 9 8 8 8 7 7
10 10 10 10 10 10 10 10 10 10 9 9 9 9 9 9 9 8 8 9 9 9 9 9 9 10 10 10 10 10 10 10 10 11 11 11 11 11 11 11 11 11 11 11 11 11 11 11 10 10 10 10 10 9 9 9 9 9 8 8 8 8 8 8 7 7 7 6 6
10 10 10 10 10 10 10 10 9 9 9 9 9 9 9 9 8 8 8 9 9 9 9 9 9 9 10 10 10 10 10 10 10 11 11 11 11 11 11 11 11 10 10 10 10 10 10 10 10 9 9 9 9 9 8 8 8 8 8 7 7 7 7 6 6 6 6 5 4
10 10 9 9 9 9 9 9 9 9 9 9 8 8 8 8 8 8 8 8 9 9 9 9 9 9 10 10 10 10 10 10 10 10 10 11 10 10 10 10 10 10 10 10 10 9 9 9 9 9 9 8 8 8 8 7 7 7 7 7 6 6 6 6 5 5 5 4 4
9 9 9 9 9 9 9 9 9 9 8 8 8 8 8 8 8 8 8 8 9 9 9 9 9 9 10 10 10 10 10 10 10 10 10 10 10 10 9 9 9 9 9 9 9 9 9 8 8 8 8 8 7 7 7 6 6 6 6 6 6 6 5 5 4 4 4 3 3
8 8 8 8 8 8 8 8 8 8 8 8 8 7 7 8 8 8 8 8 9 9 9 9 9 9 10 10 10 10 10 10 10 9 9 9 9 9 9 8 8 8 8 8 8 8 8 8 8 7 7 7 7 6 6 6 6 5 5 5 5 5 5 4 4 4 3 3 2
8 8 8 8 8 8 8 8 8 8 7 7 7 7 7 8 8 8 8 8 9 9 9 9 9 9 9 9 9 9 9 9 9 9 9 8 8 8 8 8 8 7 7 7 7 7 7 7 6 6 6 6 6 6 6 5 5 5 5 5 5 5 4 4 4 4 3 3 2
7 7 7 7 7 7 7 7 7 7 7 7 7 7 8 8 8 8 8 9 9 9 9 9 9 9 9 9 9 9 9 9 8 8 8 8 7 7 7 7 7 7 7 6 6 6 6 6 5 5 5 5 5 5 5 5 5 5 5 5 4 4 4 4 4 3 3 3 2
7 7 7 7 7 7 7 7 7 7 7 7 7 7 8 8 8 8 8 9 9 9 9 9 9 9 9 9 9 8 8 8 8 8 7 7 7 7 7 7 6 6 6 6 5 5 5 5 5 5 5 5 5 5 5 5 5 5 5 4 4 4 4 4 3 3 2 2 2
7 7 7 7 7 7 7 7 7 7 7 7 7 8 8 8 8 9 9 9 9 9 9 9 9 9 8 8 8 8 8 8 7 7 7 7 7 6 6 6 6 5 5 5 5 5 5 5 5 5 5 5 5 5 5 5 4 4 4 4 4 4 3 3 3 2 2 2 2
7 7 7 7 7 7 7 7 7 7 7 7 8 8 8 8 9 9 9 9 9 9 8 8 8 8 8 8 8 8 7 7 7 7 7 6 6 6 6 5 5 5 5 5 5 4 4 5 5 5 5 5 5 5 5 5 4 4 4 4 4 3 3 3 2 2 2 2 2
7 7 7 7 7 7 7 7 7 8 8 8 8 8 8 9 9 9 9 9 8 8 8 8 8 8 8 8 7 7 7 7 7 6 6 6 6 5 5 5 5 5 4 4 4 4 4 5 5 5 5 5 5 5 5 5 4 4 4 4 3 3 3 2 2 2 1 1 2
7 7 7 7 7 7 7 7 7 8 8 8 8 8 8 8 8 8 8 8 8 8 8 8 8 8 8 7 7 7 7 6 6 6 6 5 5 5 5 5 4 4 4 4 4 4 4 4 5 5 5 5 5 5 5 5 4 4 4 4 3 3 2 2 2 2 1 1 2
7 7 7 7 7 7 7 7 7 7 8 8 8 8 8 8 8 8 8 8 8 8 8 8 8 7 7 7 7 6 6 6 6 5 5 5 5 4 4 4 4 4 4 4 4 4 4 4 4 4 4 4 4 4 4 4 4 4 4 4 3 3 2 2 2 2 2 2 1
7 7 7 7 7 7 7 7 7 8 8 8 8 8 8 8 8 8 8 8 8 7 7 7 7 7 7 6 6 6 6 5 5 5 5 5 4 4 4 4 4 4 4 4 4 4 4 4 4 4 4 4 4 4 4 4 4 4 4 4 3 3 2 2 2 2 2 2 2
7 7 7 7 7 7 7 8 8 8 8 8 8 8 8 8 8 8 7 7 7 7 7 7 7 6 6 6 6 5 5 5 5 5 4 4 4 4 4 4 4 4 4 4 4 4 4 4 4 4 4 4 4 4 4 4 4 4 4 4 3 3 2 2 2 2 2 2 2
7 7 7 7 7 7 7 7 8 7 7 7 7 7 7 7 7 7 7 7 7 7 7 6 6 6 5 5 5 5 5 4 4 4 4 4 4 4 4 4 4 3 3 4 4 4 4 4 4 4 4 4 4 4 4 4 4 3 3 3 3 2 2 2 2 2 2 2 2
7 7 7 7 7 7 7 7 7 7 7 7 7 7 7 7 7 7 7 6 6 6 6 6 6 5 5 5 5 4 4 4 4 4 4 4 4 3 3 3 3 3 3 3 4 4 3 3 3 3 3 4 4 4 3 3 3 3 3 3 3 2 2 2 2 2 2 2 2
7 7 7 7 7 7 7 7 7 7 7 7 7 7 7 7 7 6 6 6 6 6 6 6 5 5 5 4 4 4 4 4 4 4 4 3 3 3 3 3 3 3 3 3 3 3 3 3 3 3 3 3 3 3 3 3 3 3 3 2 2 2 2 2 2 2 2 2 2
6 7 7 7 7 7 7 7 7 7 7 7 7 7 6 6 6 6 6 6 6 5 5 5 5 5 4 4 4 4 4 4 4 3 3 3 3 3 3 3 3 3 3 3 3 3 3 3 3 3 3 3 3 3 3 3 3 3 3 2 2 2 2 2 1 1 1 1 1
6 6 7 7 7 7 7 7 7 7 6 6 6 6 6 6 6 6 6 6 5 5 5 5 4 4 4 4 4 4 4 4 3 3 3 3 3 3 3 3 2 2 2 3 3 3 2 2 2 2 2 3 3 3 3 3 3 3 3 2 2 2 2 2 1 1 1 1 1
Height
1489 1490 1491 1492 1493 1494 1495 1496 1497 1498 1499 1500 1500 1500 1501 1502 1503 1504 1505 1506 1508 1509 1510 1511 1512 1513 1514 1515 1516 1517 1518 1518 1519 1520 1521 1522 1522 1523 1524 1524 1525 1526 1527 1528 1528 1529 1530 1530 1531 1531 1531 1532 1532 1533 1533 1533 1534 1534 1534 1534 1535 1535 1535 1535 1535 1536 1536 1536 1536
1489 1490 1491 1491 1492 1493 1494 1495 1496 1497 1498 1499 1500 1500 1500 1501 1502 1503 1504 1506 1507 1508 1510 1511 1512 1513 1513 1514 1515 1516 1517 1518 1519 1520 1520 1521 1522 1523 1523 1524 1525 1525 1526 1527 1528 1528 1529 1529 1530 1530 1530 1531 1531 1532 1532 1532 1533 1533 1533 1533 1534 1534 1534 1534 1534 1534 1535 1535 1535
1488 1489 1490 1490 1491 1492 1493 1493 1493 1495 1496 1497 1498 1499 1500 1500 1501 1502 1503 1505 1506 1508 1509 1510 1511 1512 1513 1513 1514 1515 1516 1517 1518 1519 1520 1521 1521 1522 1523 1523 1524 1525 1525 1526 1527 1527 1528 1528 1529 1529 1529 1530 1530 1530 1531 1531 1532 1532 1532 1533 1533 1533 1533 1533 1533 1533 1533 1534 1534
1487 1487 1488 1489 1490 1490 1491 1492 1492 1493 1494 1495 1497 1498 1498 1499 1500 1501 1502 1504 1505 1506 1507 1508 1510 1511 1512 1513 1513 1514 1515 1516 1517 1518 1519 1519 1520 1521 1522 1522 1523 1523 1524 1525 1526 1526 1527 1527 1528 1528 1528 1528 1529 1529 1529 1530 1530 1530 1531 1531 1531 1532 1532 1532 1532 1532 1532 1533 1533
1486 1487 1488 1488 1488 1489 1491 1492 1493 1493 1494 1495 1497 1498 1498 1499 1499 1500 1502 1503 1504 1505 1506 1508 1509 1510 1511 1512 1513 1514 1515 1515 1516 1517 1518 1518 1519 1519 1520 1521 1522 1523 1523 1524 1524 1525 1525 1526 1526 1527 1527 1527 1527 1528 1528 1528 1528 1528 1529 1529 1530 1530 1530 1531 1531 1531 1531 1531 1531
1486 1487 1487 1488 1488 1489 1491 1491 1493 1494 1495 1496 1498 1499 1499 1499 1499 1501 1502 1503 1504 1505 1507 1508 1509 1509 1510 1511 1512 1513 1513 1514 1515 1516 1516 1517 1518 1518 1519 1520 1521 1522 1522 1523 1523 1523 1524 1524 1525 1525 1525 1526 1526 1526 1526 1526 1527 1527 1527 1527 1528 1528 1528 1528 1529 1529 1529 1528 1528
1486 1486 1487 1487 1488 1490 1491 1492 1493 1495 1496 1497 1499 1500 1499 1499 1500 1502 1503 1503 1505 1506 1507 1508 1508 1509 1510 1510 1511 1512 1513 1513 1514 1515 1515 1516 1517 1518 1518 1519 1520 1520 1521 1521 1522 1522 1522 1523 1523 1523 1523 1524 1524 1524 1524 1524 1525 1525 1525 1525 1526 1526 1526 1526 1527 1527 1526 1526 1526
1484 1485 1486 1487 1488 1489 1491 1492 1494 1495 1495 1498 1499 1500 1500 1500 1501 1503 1503 1504 1505 1506 1507 1507 1508 1508 1509 1509 1510 1511 1511 1512 1513 1513 1514 1515 1516 1516 1517 1518 1518 1519 1519 1520 1520 1520 1521 1521 1521 1522 1522 1522 1522 1523 1523 1523 1523 1523 1523 1524 1524 1524 1524 1524 1524 1524 1524 1524 1524
1482 1483 1484 1485 1487 1488 1489 1491 1493 1494 1495 1498 1499 1499 1500 1500 1501 1502 1503 1504 1505 1506 1506 1507 1507 1507 1508 1508 1508 1509 1510 1511 1512 1512 1513 1514 1514 1515 1516 1516 1517 1518 1518 1518 1519 1519 1519 1520 1520 1520 1520 1521 1521 1521 1521 1521 1522 1522 1522 1522 1522 1522 1522 1522 1522 1522 1522 1522 1522
1480 1481 1483 1484 1485 1486 1488 1490 1492 1493 1495 1496 1497 1498 1498 1499 1500 1501 1503 1504 1505 1506 1506 1507 1506 1506 1506 1507 1507 1508 1509 1510 1510 1511 1512 1512 1513 1513 1514 1515 1515 1516 1516 1517 1517 1518 1518 1518 1518 1519 1519 1519 1519 1519 1519 1519 1520 1520 1520 1520 1520 1520 1520 1520 1520 1520 1520 1520 1520
1479 1480 1481 1483 1484 1486 1488 1489 1491 1493 1494 1495 1496 1497 1498 1498 1499 1500 1502 1503 1504 1505 1506 1506 1505 1505 1505 1506 1506 1507 1508 1508 1509 1510 1510 1511 1512 1512 1513 1513 1513 1514 1514 1515 1515 1516 1516 1517 1517 1517 1518 1518 1518 1518 1518 1518 1518 1518 1518 1518 1518 1518 1518 1518 1518 1518 1517 1517 1517
1479 1480 1481 1482 1483 1485 1487 1488 1490 1492 1493 1494 1495 1496 1497 1498 1499 1500 1502 1503 1503 1504 1504 1504 1504 1504 1504 1504 1505 1506 1506 1507 1508 1508 1509 1509 1510 1510 1511 1511 1512 1512 1513 1513 1514 1514 1515 1515 1515 1516 1516 1516 1516 1516 1516 1516 1516 1516 1516 1516 1516 1516 1516 1516 1516 1515 1515 1514 1514
1478 1479 1480 1482 1483 1484 1486 1488 1489 1491 1493 1493 1495 1496 1497 1498 1499 1500 1501 1502 1503 1503 1503 1502 1502 1502 1503 1503 1504 1505 1505 1506 1507 1507 1508 1508 1508 1509 1509 1510 1510 1511 1511 1512 1513 1513 1513 1513 1514 1514 1514 1514 1514 1514 1514 1514 1514 1514 1514 1514 1514 1514 1514 1513 1513 1513 1513 1512 1512
1478 1479 1480 1482 1483 1484 1485 1487 1489 1491 1492 1493 1494 1495 1496 1497 1498 1499 1500 1502 1502 1503 1503 1502 1501 1501 1502 1503 1503 1504 1504 1505 1506 1507 1507 1507 1507 1508 1508 1508 1509 1510 1510 1511 1511 1511 1512 1512 1512 1512 1512 1512 1512 1512 1512 1512 1512 1512 1512 1512 1512 1512 1512 1511 1511 1511 1510 1510 1510
1478 1479 1480 1482 1483 1484 1485 1487 1488 1490 1492 1493 1494 1495 1496 1497 1498 1499 1500 1501 1502 1503 1503 1502 1501 1500 1501 1502 1502 1503 1503 1504 1504 1505 1506 1506 1507 1507 1507 1507 1508 1508 1509 1509 1510 1510 1510 1510 1510 1510 1510 1510 1510 1510 1510 1510 1510 1510 1510 1510 1509 1509 1509 1509 1509 1508 1508 1508 1508
1478 1479 1480 1482 1483 1483 1484 1486 1488 1490 1492 1493 1494 1495 1496 1497 1498 1499 1500 1501 1502 1502 1501 1501 1500 1500 1500 1501 1501 1502 1502 1503 1504 1505 1506 1506 1507 1507 1506 1506 1507 1507 1507 1508 1508 1508 1508 1508 1508 1508 1508 1508 1508 1508 1508 1508 1508 1508 1508 1507 1507 1507 1507 1507 1506 1506 1506 1505 1505
1478 1479 1480 1481 1482 1483 1484 1485 1487 1489 1491 1492 1494 1495 1496 1497 1498 1499 1500 1501 1501 1500 1500 1499 1499 1499 1499 1500 1500 1501 1501 1502 1503 1504 1505 1506 1507 1506 1505 1505 1505 1506 1506 1506 1506 1507 1507 1507 1507 1507 1507 1507 1507 1507 1506 1506 1506 1506 1505 1505 1505 1505 1504 1504 1504 1503 1503 1503 1503
1478 1479 1480 1481 1482 1483 1484 1485 1487 1489 1491 1493 1494 1495 1496 1497 1498 1499 1499 1500 1500 1499 1499 1498 1498 1499 1499 1499 1500 1500 1501 1501 1502 1503 1503 1504 1505 1504 1504 1504 1504 1504 1505 1505 1505 1505 1505 1505 1505 1505 1505 1505 1505 1504 1504 1504 1504 1503 1503 1503 1503 1502 1502 1502 1501 1501 1501 1500 1500
1478 1479 1480 1481 1482 1483 1484 1486 1488 1489 1491 1493 1494 1495 1496 1497 1498 1498 1498 1499 1498 1498 1498 1498 1499 1499 1499 1499 1499 1499 1500 1500 1501 1501 1502 1502 1503 1503 1503 1503 1503 1503 1503 1504 1504 1504 1504 1503 1503 1503 1503 1503 1502 1502 1502 1502 1502 1501 1501 1501 1500 1500 1500 1499 1499 1498 1498 1498 1498
1478 1479 1480 1481 1482 1483 1485 1486 1488 1490 1492 1493 1494 1495 1496 1497 1497 1497 1498 1498 1498 1497 1498 1498 1498 1498 1498 1498 1498 1498 1499 1499 1500 1500 1501 1501 1501 1502 1502 1502 1502 1502 1502 1502 1502 1502 1502 1502 1501 1501 1501 1500 1500 1500 1499 1499 1499 1499 1498 1498 1498 1498 1497 1497 1497 1496 1496 1496 1495
1478 1479 1480 1481 1483 1484 1486 1487 1489 1490 1492 1493 1493 1494 1495 1495 1496 1496 1496 1496 1496 1497 1497 1498 1498 1498 1498 1498 1498 1498 1498 1498 1499 1499 1500 1500 1500 1501 1501 1501 1501 1501 1501 1501 1500 1500 1500 1499 1499 1499 1498 1498 1498 1498 1497 1497 1497 1497 1496 1496 1496 1495 1495 1494 1494 1494 1494 1493 1493
1478 1479 1480 1482 1483 1485 1487 1488 1489 1490 1491 1492 1492 1493 1493 1494 1495 1495 1495 1495 1496 1496 1497 1498 1498 1498 1498 1497 1497 1497 1497 1498 1498 1498 1498 1499 1499 1499 1499 1499 1499 1499 1499 1498 1498 1498 1498 1497 1497 1497 1496 1496 1496 1495 1495 1495 1495 1494 1494 1494 1493 1493 1493 1492 1492 1492 1492 1492 1492
1478 1479 1481 1482 1484 1485 1487 1488 1488 1489 1490 1491 1492 1493 1493 1493 1494 1494 1495 1495 1495 1495 1496 1497 1497 1496 1496 1496 1496 1496 1496 1497 1497 1497 1497 1497 1497 1497 1497 1497 1497 1497 1497 1497 1496 1496 1496 1495 1495 1494 1494 1494 1493 1493 1493 1493 1493 1493 1492 1492 1492 1491 1491 1490 1490 1490 1490 1490 1490
1479 1480 1481 1482 1483 1485 1486 1487 1488 1489 1490 1491 1491 1492 1492 1493 1493 1493 1494 1494 1494 1495 1495 1495 1495 1495 1495 1495 1495 1495 1495 1495 1495 1495 1495 1495 1495 1496 1496 1495 1495 1495 1495 1495 1494 1494 1493 1493 1493 1492 1492 1492 1492 1492 1491 1491 1491 1491 1490 1490 1490 1490 1489 1489 1488 1488 1488 1488 1488
1479 1480 1481 1483 1483 1485 1486 1488 1488 1489 1490 1490 1491 1491 1492 1492 1492 1493 1493 1493 1493 1494 1494 1494 1494 1494 1493 1493 1493 1494 1494 1494 1494 1494 1494 1494 1494 1494 1494 1494 1493 1493 1493 1493 1492 1492 1492 1491 1491 1491 1490 1490 1490 1490 1490 1489 1489 1489 1488 1488 1488 1488 1488 1487 1487 1487 1487 1487 1487
1480 1481 1482 1483 1484 1485 1486 1487 1488 1488 1489 1489 1490 1490 1491 1491 1492 1492 1492 1492 1493 1493 1493 1493 1493 1493 1492 1492 1492 1492 1493 1493 1493 1493 1493 1492 1492 1492 1492 1492 1492 1492 1491 1491 1491 1490 1490 1490 1489 1489 1489 1489 1489 1489 1488 1488 1488 1487 1487 1487 1486 1486 1486 1486 1486 1486 1486 1485 1485
1480 1481 1482 1483 1484 1485 1486 1487 1487 1488 1488 1489 1489 1490 1490 1490 1491 1491 1491 1491 1491 1492 1492 1492 1491 1491 1491 1491 1491 1491 1491 1491 1491 1491 1491 1491 1490 1490 1490 1490 1490 1490 1490 1490 1489 1489 1489 1488 1488 1488 1487 1487 1487 1487 1487 1487 1486 1486 1486 1485 1485 1484 1484 1484 1484 1484 1484 1484 1484
1480 1481 1482 1483 1483 1484 1485 1486 1487 1487 1488 1488 1489 1489 1489 1489 1489 1490 1490 1490 1490 1490 1490 1490 1490 1490 1490 1490 1489 1489 1489 1489 1489 1489 1489 1489 1489 1489 1489 1489 1489 1489 1488 1488 1488 1488 1488 1487 1487 1487 1486 1486 1486 1486 1486 1485 1485 1485 1484 1484 1483 1483 1483 1482 1482 1482 1482 1482 1483
1479 1480 1481 1482 1483 1483 1484 1485 1485 1486 1487 1487 1488 1488 1488 1488 1488 1488 1488 1488 1488 1488 1488 1488 1488 1488 1488 1488 1488 1488 1488 1488 1488 1488 1488 1488 1488 1488 1488 1488 1488 1488 1488 1487 1487 1487 1487 1486 1486 1486 1485 1485 1485 1485 1484 1484 1484 1483 1483 1483 1482 1481 1481 1480 1480 1480 1480 1480 1481
1479 1480 1481 1481 1482 1483 1483 1484 1484 1485 1485 1485 1486 1486 1486 1486 1486 1486 1487 1487 1487 1487 1487 1487 1487 1487 1486 1486 1486 1486 1486 1487 1487 1487 1487 1487 1487 1487 1487 1487 1487 1487 1486 1486 1486 1486 1485 1485 1485 1485 1484 1484 1484 1484 1483 1483 1483 1482 1482 1481 1481 1480 1480 1479 1479 1478 1478 1478 1479
1479 1480 1480 1481 1481 1482 1482 1483 1483 1483 1483 1484 1484 1484 1484 1484 1484 1484 1485 1485 1485 1485 1485 1485 1485 1485 1485 1485 1485 1485 1485 1486 1486 1486 1486 1486 1486 1486 1486 1486 1486 1485 1485 1485 1485 1485 1484 1484 1484 1484 1483 1483 1483 1483 1483 1482 1482 1481 1481 1480 1480 1479 1478 1478 1478 1477 1477 1477 1477
1478 1479 1479 1480 1480 1481 1481 1481 1482 1482 1482 1482 1482 1482 1482 1482 1483 1483 1483 1483 1483 1483 1484 1484 1484 1484 1484 1484 1484 1484 1484 1485 1485 1485 1485 1485 1485 1485 1485 1484 1484 1484 1484 1484 1484 1483 1483 1483 1483 1483 1483 1482 1482 1482 1482 1481 1481 1480 1479 1479 1478 1478 1477 1477 1476 1476 1476 1476 1476
1478 1478 1478 1479 1479 1479 1480 1480 1480 1480 1480 1480 1480 1480 1481 1481 1481 1481 1482 1482 1482 1482 1483 1483 1483 1483 1483 1483 1483 1483 1483 1484 1484 1484 1484 1484 1484 1484 1483 1483 1483 1483 1483 1483 1483 1482 1482 1482 1482 1482 1482 1482 1481 1481 1481 1480 1480 1479 1478 1478 1477 1477 1476 1476 1475 1475 1475 1475 1475
1476 1477 1477 1478 1478 1478 1478 1478 1478 1479 1479 1479 1479 1479 1479 1479 1480 1480 1480 1481 1481 1481 1481 1482 1482 1482 1482 1482 1482 1482 1483 1483 1483 1483 1483 1483 1483 1483 1482 1482 1482 1482 1482 1482 1481 1481 1481 1481 1481 1481 1481 1481 1480 1480 1479 1479 1478 1478 1477 1477 1476 1476 1475 1475 1474 1474 1474 1474 1474
1475 1476 1476 1476 1477 1477 1477 1477 1477 1478 1478 1478 1478 1478 1478 1478 1479 1479 1479 1480 1480 1480 1480 1480 1481 1481 1481 1481 1481 1481 1481 1481 1481 1481 1481 1481 1481 1481 1481 1481 1481 1481 1480 1480 1480 1480 1480 1480 1480 1480 1480 1480 1479 1479 1478 1478 1477 1477 1476 1476 1475 1475 1474 1474 1473 1473 1473 1473 1473
1474 1475 1475 1475 1475 1476 1476 1476 1476 1476 1477 1477 1477 1477 1477 1478 1478 1478 1478 1478 1479 1479 1479 1479 1479 1479 1479 1480 1480 1480 1480 1480 1480 1480 1480 1480 1480 1480 1480 1480 1479 1479 1479 1479 1479 1479 1479 1479 1479 1479 1479 1479 1478 1478 1478 1477 1477 1476 1475 1475 1474 1474 1473 1473 1473 1473 1473 1473 1473
1473 1474 1474 1474 1474 1474 1475 1475 1475 1476 1476 1476 1476 1476 1476 1476 1477 1477 1477 1477 1477 1478 1478 1478 1478 1478 1478 1478 1478 1478 1479 1479 1479 1479 1479 1479 1479 1479 1479 1479 1479 1478 1478 1478 1478 1478 1478 1478 1478 1478 1478 1478 1477 1477 1477 1476 1476 1475 1474 1473 1473 1473 1472 1472 1472 1472 1472 1472 1472
1472 1473 1473 1473 1473 1473 1474 1474 1474 1474 1475 1475 1475 1475 1475 1475 1475 1475 1475 1476 1476 1476 1476 1476 1476 1477 1477 1477 1478 1478 1478 1478 1478 1478 1478 1478 1478 1478 1478 1478 1478 1478 1478 1478 1478 1478 1477 1477 1477 1477 1477 1477 1476 1476 1476 1475 1475 1474 1473 1473 1472 1472 1471 1471 1471 1471 1471 1471 1471
1471 1472 1472 1472 1473 1473 1473 1473 1473 1473 1473 1473 1473 1473 1473 1473 1474 1474 1474 1474 1474 1475 1475 1475 1475 1476 1476 1476 1476 1476 1477 1477 1477 1477 1477 1477 1477 1477 1477 1477 1477 1477 1476 1476 1476 1476 1476 1476 1476 1476 1475 1475 1475 1475 1475 1474 1473 1473 1472 1472 1471 1471 1471 1471 1470 1470 1470 1470 1470
1470 1471 1471 1471 1472 1472 1472 1472 1472 1472 1472 1472 1472 1472 1472 1472 1472 1473 1473 1473 1473 1473 1474 1474 1474 1475 1475 1475 1475 1475 1475 1476 1476 1476 1476 1476 1476 1476 1476 1476 1476 1476 1475 1475 1475 1475 1475 1475 1475 1475 1474 1474 1474 1474 1474 1473 1473 1472 1472 1471 1471 1470 1470 1470 1470 1470 1470 1470 1470
1469 1470 1470 1470 1471 1471 1471 1471 1471 1471 1471 1471 1471 1471 1471 1471 1471 1471 1472 1472 1472 1472 1473 1473 1473 1473 1474 1474 1474 1474 1474 1475 1475 1475 1475 1475 1475 1475 1475 1475 1475 1475 1474 1474 1474 1474 1474 1474 1474 1473 1473 1473 1473 1473 1473 1472 1472 1472 1471 1470 1470 1470 1470 1469 1469 1469 1469 1469 1469
Wind_Speed
31 28 26 24 25 25 26 28 30 30 31 31 30 29 28 27 26 27 28 28 28 27 26 24 23 23 22 22 21 21 20 20 19 18 17 17 16 15 15 14 14 13 13 13 14 15 16 17 18 18 19 19 20 20 20 20 20 20 19 19 18 18 17 16 15 14 14 13 13
27 24 22 21 21 22 23 26 29 31 31 30 28 26 25 24 24 24 25 27 27 26 24 23 23 23 22 21 21 21 20 20 19 17 16 15 14 13 13 13 13 13 13 13 14 15 16 16 17 18 19 19 20 20 21 22 22 22 21 21 21 20 18 17 15 14 13 12 12
22 21 20 19 19 20 22 26 28 29 29 26 24 23 23 22 21 21 22 24 25 24 23 23 23 23 22 21 21 21 20 19 18 16 15 13 13 12 12 12 12 13 13 14 14 15 16 17 18 18 19 20 21 21 22 23 23 23 23 23 22 22 21 19 17 16 15 14 15
20 19 18 17 17 17 19 23 25 26 25 24 23 23 22 21 21 20 19 20 22 23 22 22 22 22 21 21 21 20 19 18 16 15 14 13 13 13 13 13 13 13 14 15 16 17 17 18 18 19 19 20 21 22 23 23 23 24 24 24 24 24 23 22 20 18 17 17 17
20 19 18 17 15 14 15 19 21 22 24 25 25 24 24 22 21 19 17 17 19 20 20 21 21 21 20 20 19 19 18 17 15 14 13 13 13 13 13 14 14 15 16 16 17 18 18 19 19 19 20 21 22 23 23 24 24 24 25 25 25 25 24 23 22 20 19 20 20
20 21 20 18 14 13 13 14 17 21 25 26 26 25 24 23 23 20 17 16 18 19 20 21 20 20 19 18 18 17 16 15 13 12 12 12 13 14 14 15 16 16 17 17 18 18 19 19 19 20 21 22 23 23 24 24 25 25 25 25 25 25 24 23 22 21 21 22 22
19 19 20 18 15 14 13 11 12 16 20 23 24 23 21 20 21 20 18 19 19 19 19 20 19 18 17 17 16 15 14 13 12 12 12 12 13 14 15 16 17 17 17 18 18 18 19 19 20 22 23 23 24 24 24 24 25 24 24 23 23 22 22 21 21 22 22 23 24
18 20 20 19 17 16 15 13 12 12 13 15 17 19 20 20 20 20 20 20 18 18 18 18 17 17 16 15 15 14 13 13 12 12 12 13 14 15 16 17 17 17 17 17 18 18 19 20 21 22 23 23 23 23 23 24 23 23 21 21 20 20 20 21 22 23 23 24 25
18 20 20 20 19 19 19 17 15 13 12 12 14 15 17 18 19 20 20 19 17 16 16 16 16 16 15 15 14 14 14 13 13 12 13 14 15 16 17 17 17 16 16 16 17 17 18 19 20 21 21 21 21 21 22 22 21 21 20 20 20 21 21 22 23 24 25 26 26
18 19 20 20 21 20 20 19 18 16 15 13 13 14 16 16 17 18 18 16 15 15 16 15 15 15 15 15 15 15 15 14 14 13 14 15 16 17 18 17 16 16 16 16 16 17 18 18 19 19 20 20 20 20 20 20 20 20 21 21 22 22 23 24 25 25 26 27 27
18 19 20 20 20 20 18 18 18 18 16 15 14 15 16 16 16 16 15 15 15 15 15 15 15 15 15 16 16 17 16 15 15 15 15 16 17 18 18 18 17 16 16 16 17 17 18 19 19 19 19 20 20 20 20 20 21 21 22 22 23 23 24 25 25 26 27 27 27
18 19 20 20 19 18 17 17 17 16 16 16 15 15 15 15 16 15 15 15 16 17 17 16 14 14 15 16 17 17 17 17 17 17 17 17 18 19 19 18 17 17 17 17 18 19 20 20 20 20 20 20 21 21 21 21 22 22 23 23 24 24 25 25 26 27 27 28 28
19 19 19 19 18 17 16 16 15 15 15 16 17 16 15 16 16 17 17 18 19 20 19 17 15 14 15 16 16 17 17 18 18 18 18 19 19 19 19 18 18 17 18 18 19 20 20 20 20 20 20 21 21 22 22 23 23 23 24 24 24 25 25 26 27 28 28 29 30
18 18 17 17 16 16 16 16 16 15 16 17 18 18 17 17 18 18 19 20 20 21 20 17 14 13 14 15 16 17 18 19 19 19 19 18 18 18 18 18 17 17 17 18 19 19 20 20 20 20 21 21 22 23 23 24 24 24 25 25 26 26 27 28 29 29 30 31 32
16 15 15 15 16 16 17 17 17 17 18 19 19 19 19 19 19 20 20 21 20 20 18 15 13 13 14 16 17 18 19 20 19 18 16 15 15 16 17 16 16 16 17 17 18 19 19 20 21 21 21 22 23 24 25 25 25 26 26 27 27 28 29 30 31 31 32 33 33
14 14 14 15 15 15 15 15 16 18 19 19 19 20 20 20 20 20 21 21 20 18 16 14 14 14 16 17 19 19 19 19 18 17 16 15 15 15 15 15 15 16 16 17 18 19 20 21 21 22 22 23 24 25 26 26 27 27 28 29 29 30 31 32 32 33 33 34 34
12 12 12 12 13 13 13 13 14 15 16 16 17 18 19 19 20 20 20 20 19 17 16 15 15 16 17 18 17 17 16 15 14 14 14 15 15 15 14 15 15 16 17 18 18 19 20 21 22 23 23 24 25 26 27 27 28 29 30 30 31 32 32 33 33 33 33 33 33
10 10 10 10 10 10 10 10 10 11 11 12 13 14 16 17 18 19 19 19 17 16 15 15 15 15 15 14 13 12 11 11 10 11 12 13 14 15 15 16 17 17 18 19 19 20 21 22 23 23 24 25 26 27 27 28 29 30 31 31 32 32 32 32 32 32 32 31 31
9 9 9 9 9 8 8 7 7 7 8 8 9 11 13 15 17 18 18 17 17 15 14 13 12 11 11 10 9 9 9 9 9 10 11 12 14 15 16 17 18 18 19 19 20 21 22 23 24 24 25 26 27 27 28 29 29 30 30 31 31 31 31 30 30 30 30 29 29
9 9 8 7 7 6 5 5 6 6 7 9 10 12 14 15 16 17 17 16 15 14 12 10 9 9 9 9 8 8 8 9 10 11 12 13 15 16 17 18 18 19 19 20 20 21 22 23 24 25 25 26 26 27 27 28 29 29 29 30 30 29 29 29 28 28 27 27 26
8 8 7 7 6 5 5 6 7 9 11 13 14 15 15 15 15 15 14 13 12 11 10 10 9 10 10 10 9 9 9 10 11 12 13 14 16 17 17 18 18 19 19 20 21 22 23 23 24 24 24 25 25 25 26 26 27 27 27 28 28 28 27 27 27 26 25 24 22
8 8 8 8 7 8 9 11 12 14 15 15 15 15 14 13 12 12 11 10 9 9 10 10 11 11 10 10 10 10 11 11 12 13 14 15 16 17 17 18 18 19 20 21 21 22 22 23 23 23 23 23 23 24 24 24 25 25 25 25 26 26 26 25 25 24 23 21 19
9 10 10 10 11 12 14 15 15 15 14 14 13 12 11 11 11 10 10 9 9 9 10 10 10 10 9 10 10 11 12 12 13 14 15 15 16 17 17 18 18 19 20 20 21 21 21 21 22 22 22 22 22 22 23 23 23 23 23 23 23 23 23 23 23 22 20 18 17
10 10 11 11 12 13 14 14 13 12 12 11 10 10 10 10 10 10 9 9 9 9 9 9 9 9 10 10 11 11 12 13 14 14 15 16 16 16 17 18 18 19 19 20 20 20 21 20 20 21 21 21 21 21 21 22 22 22 22 21 21 21 20 20 20 19 17 16 16
10 10 11 11 12 12 12 12 12 11 11 10 9 9 9 9 9 9 9 8 8 8 9 9 9 9 10 10 11 12 12 13 14 14 15 15 16 16 16 17 17 18 18 19 19 20 20 20 20 20 20 20 20 20 20 20 20 20 20 20 20 19 19 18 18 17 16 16 16
11 11 12 12 12 12 12 11 10 10 9 9 8 8 8 8 8 8 8 8 8 8 8 9 9 9 10 11 11 12 13 13 13 14 14 15 15 15 16 16 16 17 18 18 19 19 19 19 19 19 19 19 19 18 18 18 18 18 19 19 19 18 18 17 16 15 15 16 17
11 11 11 11 11 10 10 10 9 9 8 8 8 8 8 8 7 7 7 8 8 8 8 8 9 9 10 11 11 12 12 13 13 13 13 14 14 15 15 15 16 16 17 17 17 17 17 17 17 18 18 18 18 17 17 17 17 17 18 18 18 18 18 17 16 15 14 14 15
10 9 9 9 9 9 9 8 8 8 8 7 7 6 6 6 6 6 7 7 7 8 8 8 9 9 10 11 11 12 12 12 12 12 13 13 14 14 14 14 15 15 15 15 15 15 15 15 15 16 17 17 17 17 16 16 17 17 17 18 18 18 18 17 16 15 14 14 14
8 8 8 8 8 7 7 7 7 6 6 5 4 4 4 4 5 6 6 7 7 8 8 8 9 10 10 11 12 12 12 12 12 12 12 13 13 13 13 13 13 13 13 14 13 13 13 13 14 14 15 16 16 15 16 16 16 17 17 17 18 17 17 17 17 16 15 15 15
7 7 7 6 6 6 5 5 5 4 3 3 3 3 4 4 5 5 6 7 8 8 9 9 10 11 11 12 13 13 12 12 12 12 12 13 13 13 13 12 12 12 12 12 12 12 12 13 13 13 14 14 14 15 15 15 16 16 17 17 17 17 17 17 17 16 16 16 15
7 6 6 5 5 4 4 3 3 3 3 3 4 4 5 6 6 7 7 8 9 9 10 11 11 12 13 13 13 13 13 12 12 12 12 12 12 12 11 11 11 11 11 11 11 12 12 12 13 13 13 14 14 14 14 15 15 16 16 16 17 17 17 17 16 16 16 16 16
6 5 4 4 4 3 3 3 3 4 4 5 6 6 7 8 8 9 10 10 11 11 12 12 13 13 13 14 14 14 13 13 12 12 12 12 11 11 10 10 10 11 11 11 11 11 12 12 13 13 13 14 14 14 14 14 15 15 16 16 16 16 16 16 16 15 15 15 15
4 4 4 3 3 3 3 4 4 5 6 7 8 9 9 10 11 12 12 13 13 13 13 13 13 14 14 14 14 14 13 13 12 12 12 11 10 10 10 10 11 11 11 11 11 12 12 13 13 13 13 13 13 14 14 14 14 15 15 15 15 15 16 15 15 14 14 14 15
4 4 3 3 4 4 4 5 6 7 8 9 10 11 12 12 13 13 14 14 14 14 14 15 15 15 15 15 14 14 13 13 12 12 11 11 10 9 10 10 11 11 11 11 11 12 12 13 13 13 13 13 13 13 14 14 14 14 15 14 14 14 15 14 14 13 13 13 14
4 4 4 4 5 6 6 7 8 9 10 11 12 13 13 14 14 15 15 15 15 15 15 15 16 15 15 15 14 13 12 12 12 11 11 10 9 9 10 10 11 11 11 11 12 12 12 12 12 12 12 12 13 13 13 14 14 14 14 14 13 13 13 13 13 12 12 13 13
5 5 5 6 6 7 8 9 9 10 11 12 13 14 14 15 15 15 15 15 15 15 15 15 15 15 15 14 13 12 11 11 11 11 10 10 9 9 10 10 11 11 12 12 12 12 12 12 12 12 12 12 13 13 13 14 14 14 14 14 12 12 12 12 12 12 12 12 12
6 6 7 7 8 9 10 11 11 12 12 13 14 15 15 15 15 15 15 14 14 14 14 14 14 14 14 13 12 11 11 11 10 10 10 10 9 9 10 10 10 12 12 12 12 12 12 12 12 13 12 12 13 13 13 13 14 14 14 13 12 12 12 12 12 11 11 11 11
7 8 8 9 10 11 11 12 13 13 13 14 15 15 15 15 15 15 14 14 13 13 13 13 13 13 13 12 12 12 11 11 11 10 10 10 10 10 10 10 11 12 13 13 13 12 12 12 12 13 13 12 12 12 13 13 13 13 14 13 12 11 11 11 11 11 11 11 11
9 9 10 10 11 12 13 13 14 14 14 15 15 16 16 16 15 15 14 14 13 13 13 13 13 13 12 12 12 12 12 11 11 10 10 10 10 10 10 11 12 13 13 13 13 12 12 12 12 12 13 12 12 12 12 12 12 13 13 13 12 11 10 11 11 11 11 11 11
10 11 11 12 12 13 14 14 15 15 16 16 16 17 17 16 16 15 15 14 14 14 14 13 13 13 13 12 12 12 12 11 11 10 10 10 11 11 12 12 12 13 13 13 12 12 12 12 12 13 13 13 12 12 12 12 12 12 12 12 11 10 9 10 10 10 10 11 11
12 12 12 13 13 14 14 15 16 16 17 17 18 18 18 17 17 16 16 15 15 14 14 14 14 14 14 13 12 12 11 11 11 10 11 11 12 13 13 12 13 13 13 13 12 12 12 12 12 13 13 13 12 12 12 12 11 11 11 11 11 10 9 9 9 9 9 10 10
Wind_Direction
214 216 216 217 219 221 223 224 228 231 233 231 226 221 216 212 209 209 211 213 215 216 218 220 222 224 225 224 222 220 219 218 218 220 222 225 226 226 226 227 228 231 236 242 247 250 252 253 255 258 260 262 265 268 270 271 273 275 276 278 278 277 275 272 269 267 266 267 269
218 220 223 223 221 220 220 222 224 226 227 226 222 216 211 207 206 206 209 214 217 218 218 220 224 226 227 225 223 222 221 220 221 223 227 231 235 238 239 240 242 244 247 251 255 258 260 261 262 264 266 268 270 272 273 273 274 276 278 278 278 277 275 273 271 271 272 274 277
221 225 228 228 225 222 220 221 222 223 223 221 217 213 208 204 202 203 207 213 216 217 218 221 225 227 227 225 223 222 220 220 221 224 229 235 240 244 247 250 252 254 257 259 261 263 265 266 267 268 270 271 273 274 274 274 275 275 276 276 276 276 274 273 273 276 280 283 284
222 225 228 228 225 223 222 223 224 224 224 221 217 212 208 204 204 204 206 210 212 214 217 223 227 228 227 224 222 220 219 220 222 226 232 237 241 245 248 252 255 258 260 262 263 264 265 267 268 270 271 272 274 274 274 274 275 275 275 275 274 273 273 274 276 278 282 283 282
224 225 226 226 224 224 226 227 231 232 230 226 222 218 214 212 212 211 209 206 206 210 217 225 228 228 225 223 220 219 219 222 226 232 237 241 244 247 250 253 256 258 259 261 262 263 264 266 267 269 271 272 273 273 273 273 273 273 273 273 272 271 272 273 275 277 279 279 278
227 227 226 225 222 224 233 239 242 239 234 229 226 223 221 220 221 220 215 206 204 211 221 227 229 227 224 221 219 220 222 227 233 238 243 246 249 251 254 255 257 258 259 260 261 262 263 265 267 268 269 270 270 270 270 269 269 269 269 268 269 269 270 272 274 276 277 278 279
231 231 230 226 221 223 230 239 242 238 233 229 225 224 225 225 225 224 217 210 207 213 223 228 228 225 222 220 220 222 226 232 237 243 247 250 253 255 257 258 259 260 260 260 261 262 263 265 266 267 267 267 267 268 268 268 267 267 267 268 270 272 274 276 277 278 279 280 281
236 238 235 229 224 223 227 234 235 230 226 226 226 227 230 232 231 226 218 210 208 213 222 227 226 223 220 220 221 225 230 235 241 246 250 253 256 258 260 262 262 262 261 261 261 262 263 265 266 267 267 268 268 269 270 270 271 271 273 275 277 278 279 279 279 278 278 278 277
237 239 237 232 227 226 229 234 231 226 223 227 232 236 239 238 234 227 218 211 211 218 224 226 224 221 220 221 224 228 232 237 242 248 253 256 260 262 263 262 261 260 259 260 262 263 265 267 269 270 271 272 272 271 272 273 274 276 276 276 276 275 274 274 274 273 273 273 273
237 240 238 234 230 230 231 234 234 233 233 235 241 247 247 239 228 219 213 212 218 224 227 226 224 223 223 225 228 230 234 238 243 249 254 258 261 262 261 258 256 255 257 261 265 269 272 274 275 275 274 273 272 271 271 272 273 273 272 271 270 270 270 270 271 271 272 272 274
239 241 239 235 232 231 232 235 238 239 240 242 246 251 247 234 217 207 208 215 221 223 222 222 223 225 227 230 232 234 236 240 244 249 254 257 259 259 256 254 253 256 260 266 271 275 277 277 276 275 273 271 270 270 270 270 270 269 269 269 269 269 270 270 271 273 274 275 277
244 244 241 237 235 234 235 237 239 241 244 246 251 250 241 225 211 206 209 215 216 215 213 214 218 225 232 236 237 239 241 244 248 251 254 255 255 254 253 253 255 259 264 269 272 274 274 274 273 272 271 270 270 269 269 269 268 268 269 269 269 270 272 273 274 276 278 280 281
247 247 245 242 241 242 242 242 245 247 249 251 253 249 236 220 213 213 215 216 215 213 212 211 215 226 237 242 245 247 249 250 251 252 251 250 249 249 250 252 256 260 264 266 267 268 268 269 269 269 269 270 270 271 270 270 270 270 271 272 273 275 276 278 279 281 282 283 284
248 251 251 250 251 251 251 252 253 253 252 250 249 245 237 226 222 221 220 219 218 217 217 217 221 231 242 247 250 252 252 252 250 247 245 245 245 246 248 252 255 258 260 261 262 264 265 266 267 268 269 271 272 273 273 274 275 276 277 279 280 281 282 283 284 284 285 285 285
250 256 259 261 261 261 260 258 255 251 247 244 243 240 237 234 230 227 223 221 222 224 227 231 235 242 248 250 251 251 251 250 248 247 247 249 250 250 251 253 255 256 258 260 262 264 265 267 268 269 271 272 274 275 277 279 280 282 283 284 285 285 285 286 286 286 286 286 286
255 261 264 265 263 261 259 255 248 242 238 235 234 234 234 234 231 227 225 225 230 236 244 250 253 253 253 253 252 251 251 252 253 254 256 259 259 259 259 258 259 260 261 263 265 267 268 269 271 272 274 275 277 278 280 281 283 284 285 286 286 286 287 287 287 287 287 287 287
254 257 257 254 250 247 243 239 233 230 227 228 230 233 234 233 231 229 229 232 239 246 253 257 257 257 256 256 254 253 252 252 252 252 254 258 262 266 267 267 267 267 268 269 269 270 272 273 274 275 277 278 279 280 282 283 284 285 286 287 287 287 288 288 288 288 288 288 288
235 234 231 228 225 224 222 219 218 218 222 227 233 237 238 237 235 233 235 239 244 247 250 253 255 256 257 257 256 254 252 251 249 248 251 257 262 267 269 270 270 270 271 272 272 274 275 276 277 278 279 280 281 283 284 285 286 287 288 288 288 289 289 290 290 290 290 290 290
203 201 202 205 206 207 208 209 212 217 224 232 238 241 240 239 237 236 238 241 243 245 247 251 254 255 256 256 255 254 254 254 254 256 258 261 264 266 267 268 269 270 272 273 275 276 277 279 280 281 283 284 285 287 288 288 289 289 290 290 291 291 292 292 292 292 292 292 291
188 185 189 196 202 207 209 209 213 220 228 235 236 236 236 236 237 237 239 241 245 248 251 254 257 259 258 258 258 259 260 262 262 262 263 264 265 266 267 269 271 273 275 277 279 280 281 283 284 286 287 289 290 291 292 292 292 293 293 294 294 295 295 295 294 294 293 292 291
187 185 193 202 208 215 218 220 221 224 225 226 227 228 230 232 237 240 240 241 245 250 254 255 255 255 256 258 261 264 266 267 267 267 267 268 269 270 272 275 277 279 281 283 284 285 286 288 289 291 292 294 295 295 296 296 296 297 297 297 298 298 297 296 295 294 292 290 289
190 194 201 206 207 211 218 222 222 222 222 221 221 222 224 226 231 235 235 231 231 235 241 244 247 249 253 258 264 268 270 270 270 270 271 273 275 277 279 282 284 285 286 287 288 289 291 292 294 296 297 298 299 299 299 299 300 300 300 300 300 299 298 297 295 293 291 288 287
198 203 206 206 205 207 212 216 217 217 215 212 210 210 211 213 216 218 219 219 222 227 233 240 247 253 260 265 268 270 272 273 274 276 277 279 281 284 285 287 288 289 290 290 292 294 296 298 299 300 301 302 303 303 303 303 302 302 302 301 300 299 297 295 294 292 289 286 284
198 199 199 197 196 196 198 199 200 199 198 196 196 197 200 204 208 212 216 222 227 233 240 247 255 261 266 269 271 273 275 277 279 281 283 284 286 287 288 289 291 292 293 295 297 299 301 303 304 304 304 305 306 306 306 306 306 305 304 302 300 298 295 292 290 288 284 280 277
176 175 173 172 173 175 177 179 181 183 186 188 192 197 202 208 214 219 225 231 237 243 248 254 260 265 268 271 274 276 278 280 282 284 286 287 288 289 291 293 295 297 299 301 303 304 305 306 307 307 307 308 309 310 310 310 310 309 307 305 302 298 294 290 286 283 278 274 274
153 154 155 158 160 163 167 171 175 179 184 189 196 202 209 215 221 227 234 240 245 250 255 260 265 268 272 275 277 280 282 284 285 286 288 290 293 295 297 299 301 302 303 305 306 307 308 309 309 309 309 310 312 313 315 315 313 312 311 309 306 302 297 290 284 278 274 274 275
147 150 154 158 162 165 168 171 175 180 186 192 200 207 214 222 229 236 242 248 253 258 262 266 269 272 275 278 281 284 286 287 289 291 293 296 299 302 303 304 304 304 305 306 308 310 311 312 312 312 312 313 315 317 319 318 317 315 314 312 310 306 301 294 285 276 270 271 274
150 154 158 161 164 166 168 171 176 182 188 196 204 213 221 231 239 246 252 257 263 267 271 273 274 276 279 283 286 288 289 291 293 296 299 301 303 304 304 303 303 304 305 307 309 311 312 313 314 314 315 316 318 319 320 319 318 316 315 314 312 309 304 297 289 279 270 266 268
152 156 159 162 163 166 170 174 180 186 193 202 213 225 236 245 253 259 265 270 274 277 280 281 282 285 288 289 291 291 292 294 296 298 300 301 301 301 300 300 301 302 304 306 308 310 311 312 314 315 316 317 319 320 319 318 316 316 315 315 313 311 307 302 294 283 272 263 259
154 157 159 162 165 170 176 183 190 198 210 227 244 255 262 266 271 276 279 283 284 286 287 288 290 291 291 292 292 292 293 294 296 297 297 297 297 296 296 296 298 300 301 303 305 307 308 310 312 313 315 317 318 318 316 315 314 314 314 313 313 312 310 305 298 287 275 264 257
158 160 163 167 173 181 191 204 218 234 250 265 272 277 280 284 287 290 293 294 294 293 293 292 293 292 291 291 291 290 290 290 291 292 292 293 292 292 291 291 293 294 296 298 300 303 305 307 309 312 314 316 317 316 314 313 312 312 311 311 311 311 310 306 300 290 279 268 260
166 169 173 180 191 203 218 237 255 269 277 283 286 289 291 293 295 296 298 298 298 296 293 291 289 288 287 287 286 286 285 285 286 287 287 287 286 284 283 283 285 287 290 293 296 299 302 305 308 310 313 314 315 314 312 312 311 310 309 308 309 309 308 306 301 294 284 274 265
181 187 195 206 221 236 251 266 278 285 290 292 294 295 297 297 297 298 298 298 297 295 291 287 284 282 280 279 279 280 281 282 282 282 281 279 276 274 273 274 278 282 287 290 293 296 299 302 305 308 310 312 312 312 312 312 311 310 309 308 308 308 308 307 303 296 287 278 270
202 211 223 238 252 264 273 280 287 292 294 297 297 298 298 298 298 298 298 297 296 293 289 285 281 278 276 275 275 276 277 279 279 277 275 272 268 266 265 268 275 281 284 288 290 293 297 300 302 304 307 309 310 311 312 313 313 313 311 310 309 309 309 307 304 297 289 280 274
223 234 247 261 271 278 283 288 291 294 297 298 299 298 298 297 297 297 296 295 294 291 287 283 279 276 273 272 272 273 274 275 274 273 270 267 263 262 263 267 275 279 283 285 287 290 294 296 299 301 303 306 309 311 313 315 316 316 315 314 312 311 310 308 304 298 290 283 277
242 253 264 274 280 284 288 291 294 296 298 299 299 298 297 296 296 296 295 294 292 288 283 278 275 272 270 269 270 271 270 270 269 268 265 262 260 262 265 269 275 279 281 282 284 287 290 293 296 299 302 305 308 310 313 316 317 318 317 317 316 314 312 309 304 298 291 285 280
257 265 273 280 284 288 290 293 295 297 298 298 298 297 296 296 296 295 294 293 291 285 279 274 269 266 265 266 268 268 266 265 264 263 261 260 260 263 267 270 274 277 278 280 282 285 289 292 296 299 303 306 309 311 313 316 318 318 318 318 319 318 314 312 306 299 291 285 280
267 273 278 283 287 289 292 294 296 298 299 298 297 296 295 295 295 295 294 293 289 283 276 270 265 263 263 264 265 265 264 262 260 258 258 260 261 264 267 270 272 275 276 279 282 285 289 293 298 302 305 308 310 312 314 316 318 318 318 319 321 321 317 314 308 300 292 285 279
273 278 282 286 289 292 294 296 298 299 300 299 298 296 295 294 294 294 294 292 289 282 274 267 263 262 262 262 262 262 261 259 257 255 256 259 262 265 266 268 271 274 277 281 284 288 292 296 300 304 307 309 311 313 315 317 318 318 318 319 321 321 318 314 309 302 294 287 281
277 281 284 288 291 293 295 297 299 300 300 299 298 296 294 293 293 293 292 291 288 282 274 267 262 260 259 258 259 259 258 256 254 253 255 259 264 266 267 269 272 277 281 285 289 292 296 299 302 304 306 309 311 314 316 318 320 320 318 318 318 318 316 311 308 303 297 291 285
278 282 285 288 291 293 296 298 299 299 299 298 296 295 293 292 292 290 289 287 283 278 271 264 259 256 255 256 256 256 254 253 252 255 259 263 267 270 272 275 279 283 287 291 294 297 300 301 302 304 305 307 310 313 316 318 320 321 320 317 317 315 312 306 302 298 295 292 288